TimeCST,TemperatureF,Dew PointF,Humidity,Sea Level PressureIn,VisibilityMPH,Wind Direction,Wind SpeedMPH,Gust SpeedMPH,PrecipitationIn,Events,Conditions,WindDirDegrees,DateUTC
12:54 AM,28.9,23.0,78,30.08,10.0,NNW,6.9,-,N/A,,Clear,330,2013-02-11 06:54:00
1:54 AM,28.9,23.0,78,30.11,10.0,WNW,6.9,-,N/A,,Clear,300,2013-02-11 07:54:00
2:54 AM,30.9,24.1,76,30.12,10.0,WNW,6.9,-,N/A,,Clear,290,2013-02-11 08:54:00
3:54 AM,28.9,21.9,75,30.14,10.0,WNW,8.1,-,N/A,,Clear,290,2013-02-11 09:54:00
4:54 AM,27.0,21.0,78,30.15,10.0,NW,4.6,-,N/A,,Clear,320,2013-02-11 10:54:00
5:54 AM,26.1,21.0,81,30.17,10.0,WNW,3.5,-,N/A,,Clear,290,2013-02-11 11:54:00
6:54 AM,23.0,19.0,85,30.21,10.0,NW,4.6,-,N/A,,Clear,310,2013-02-11 12:54:00
7:54 AM,24.1,19.9,84,30.23,10.0,Calm,Calm,-,N/A,,Clear,0,2013-02-11 13:54:00
8:54 AM,32.0,24.1,73,30.25,10.0,NW,5.8,-,N/A,,Clear,310,2013-02-11 14:54:00
9:54 AM,39.0,23.0,53,30.25,10.0,NNW,11.5,-,N/A,,Clear,340,2013-02-11 15:54:00
10:54 AM,42.1,21.9,45,30.25,10.0,North,10.4,-,N/A,,Clear,360,2013-02-11 16:54:00
11:54 AM,45.0,19.9,37,30.25,10.0,North,9.2,-,N/A,,Clear,10,2013-02-11 17:54:00
12:54 PM,46.0,19.9,35,30.22,10.0,North,8.1,-,N/A,,Clear,360,2013-02-11 18:54:00
1:54 PM,48.0,19.0,32,30.19,10.0,Variable,3.5,-,N/A,,Clear,0,2013-02-11 19:54:00
2:54 PM,50.0,19.9,31,30.16,10.0,NNW,6.9,-,N/A,,Clear,330,2013-02-11 20:54:00
3:54 PM,50.0,19.9,31,30.15,10.0,North,4.6,-,N/A,,Clear,360,2013-02-11 21:54:00
4:54 PM,48.9,19.9,32,30.15,10.0,NNE,4.6,-,N/A,,Clear,30,2013-02-11 22:54:00
5:54 PM,46.9,19.9,34,30.15,10.0,NE,3.5,-,N/A,,Clear,50,2013-02-11 23:54:00
6:54 PM,43.0,21.0,42,30.17,10.0,NE,3.5,-,N/A,,Clear,50,2013-02-12 00:54:00
7:54 PM,32.0,21.0,64,30.18,10.0,Calm,Calm,-,N/A,,Clear,0,2013-02-12 01:54:00
8:54 PM,37.9,21.0,51,30.17,10.0,Calm,Calm,-,N/A,,Clear,0,2013-02-12 02:54:00
9:54 PM,28.9,21.0,72,30.19,10.0,North,4.6,-,N/A,,Clear,360,2013-02-12 03:54:00
10:54 PM,33.1,21.9,64,30.19,10.0,Calm,Calm,-,N/A,,Clear,0,2013-02-12 04:54:00
11:54 PM,32.0,25.0,75,30.18,10.0,North,3.5,-,N/A,,Partly Cloudy,10,2013-02-12 05:54:00